Location: Newark
(52.8300°N, 8.0000°E)
Time: 18:43:58
(UTC+00:00)

STARLINK-1072 - Pass Details

Date: 31 January 2020
Orbit: 349 x 350 km, 53.0° (Epoch: 16 February)

Event Time Altitude Azimuth Distance (km) Brightness Sun altitude
Rises 17:01:14 0° 284° (WNW) 2,166 7.8 -7.9°
Reaches altitude 10° 17:03:19 10° 276° (W) 1,321 6.8 -8.2°
Maximum altitude 17:06:06 40° 205° (SSW) 538 4.0 -8.6°
Drops below altitude 10° 17:08:53 10° 134° (SE) 1,316 5.3 -9.0°
Enters shadow 17:10:22 - 128° (SE) 1,917 6.1 -9.2°
